User: anonymous   Login
Location: Unspecified
(0.0000°N, 0.0000°E)
Time: 21:37:11
(UTC+01:00)
Language:

ATLAS V CENTAUR R/B - Orbit

View from above orbital plane
View from above orbital plane
View from above satellite
View from above satellite

Ground track
Ground track

The orbit data is extracted from the following two-line orbital elements,

1 27500U 02038B   17058.12182205  .00013185  00000-0  19140-2 0  9994
2 27500  18.0358 118.1266 6774819 204.1886  97.3937  2.95472084122685
Epoch (UTC): 27 February 2017 02:55:25
Eccentricity: 0.6774819
inclination: 18.0358°
perigee height: 238 km
apogee height: 28034 km
right ascension of ascending node: 118.1266°
argument of perigee: 204.1886°
revolutions per day: 2.95472084
mean anomaly at epoch: 97.3937°
orbit number at epoch: 12268

The dashed part of the orbit path shows where the satellite is in the earth's shadow,  

DLR